Dewpoint
47 53 55 49 45 63 66 66 66 61 58 57 57 57 58 59 60 59 57 56 56 57 58 58 57 55 55 54 54 53 53 56
50 57 60 62 65 65 65 63 60 59 58 57 57 56 59 59 57 55 55 54 54 55 54 55 54 53 53 55 54 53 52 54
52 57 59 61 62 61 60 59 59 60 59 59 59 58 58 56 53 52 51 51 52 52 52 52 52 52 53 53 53 52 52 55
52 56 58 59 60 60 59 58 59 60 61 60 58 57 55 52 52 51 51 51 49 50 50 50 52 52 51 52 53 52 50 51
52 55 57 58 58 58 57 57 58 59 60 58 57 55 53 53 52 52 51 50 49 49 50 50 51 49 48 50 50 49 49 47
51 54 56 57 58 58 58 58 57 58 59 58 57 56 55 55 54 52 50 49 48 49 49 49 48 47 47 47 47 47 46 46
51 54 56 57 58 58 59 59 58 58 58 57 56 55 52 52 53 52 51 50 49 48 49 49 48 47 47 47 47 47 46 44
48 50 53 56 57 58 58 57 55 55 55 55 54 53 51 50 50 48 47 47 48 49 49 49 48 48 47 46 46 46 45 44
42 45 49 53 55 56 54 52 51 53 53 52 51 51 49 47 48 46 47 45 46 49 50 49 47 47 47 46 45 45 45 45
39 41 44 47 49 51 50 46 45 47 49 50 51 51 49 47 48 50 48 48 47 50 49 49 48 47 47 46 45 45 45 44
37 38 40 42 43 46 48 46 44 44 47 48 48 49 49 49 50 50 49 49 50 48 49 49 48 47 47 46 45 44 44 43
35 36 37 39 41 43 48 49 47 46 48 48 48 48 49 49 49 49 49 50 49 48 47 47 47 47 47 46 45 43 43 42
33 34 36 37 38 40 43 44 46 47 48 48 49 49 48 48 48 48 48 48 47 46 46 47 46 45 45 45 44 42 42 41
31 30 28 30 32 33 35 37 41 44 47 48 49 48 48 47 47 46 46 44 44 44 44 44 44 44 43 44 44 43 41 40
30 27 28 27 26 28 29 31 38 41 45 46 48 47 46 45 44 43 43 42 41 42 43 43 43 43 43 43 42 42 40 38
29 29 28 27 27 30 30 34 43 44 44 45 46 46 44 43 42 42 42 43 41 41 41 42 43 42 42 42 41 40 38 37
27 28 27 28 29 31 35 40 42 43 42 43 43 42 41 42 43 43 43 42 41 41 41 41 41 41 36 37 39 39 38 36
27 27 27 29 33 35 37 40 41 41 40 41 41 42 42 42 42 41 41 41 41 42 42 42 41 40 34 34 35 38 37 36
29 27 31 35 38 39 42 42 42 43 42 41 41 41 42 41 42 40 39 39 36 36 37 37 38 35 34 34 35 37 36 35
Wind_Speed
6 9 8 2 6 17 16 13 12 16 16 15 14 13 10 9 8 5 14 10 7 11 7 4 9 3 1 3 2 3 3 9
10 11 11 12 14 15 14 16 16 17 15 14 12 11 10 9 8 9 11 7 7 7 9 9 5 3 3 4 3 2 5 13
8 10 9 10 12 12 14 16 15 13 13 10 8 12 7 8 8 7 9 7 6 6 6 5 4 7 2 3 6 5 9 12
8 9 9 9 9 10 12 13 13 11 15 13 13 11 9 6 4 6 6 6 3 1 2 4 2 2 6 4 3 5 9 12
9 10 10 9 8 9 11 13 16 11 14 17 18 12 11 5 6 6 7 5 4 4 3 4 5 4 5 7 8 6 9 14
12 12 12 11 9 11 13 14 15 14 13 13 12 6 7 9 9 9 8 8 8 7 7 6 5 4 3 2 3 5 9 10
12 12 13 12 11 13 15 17 16 15 13 10 8 10 9 9 9 11 9 8 8 9 8 5 3 1 1 2 3 5 7 8
14 15 15 15 13 15 15 17 15 12 10 10 9 10 7 8 10 11 11 11 10 11 9 7 6 5 4 4 5 5 6 7
14 15 16 18 18 17 16 14 13 12 10 9 8 8 10 8 9 6 8 6 7 8 8 5 4 4 4 4 5 4 2 4
16 16 16 17 18 16 15 13 13 11 10 9 9 9 8 8 5 6 6 5 6 10 10 10 8 7 7 6 6 5 4 4
17 17 16 17 16 15 12 10 10 11 10 11 10 10 8 8 8 9 8 9 9 10 9 8 7 8 8 8 7 6 6 5
19 18 17 16 15 15 14 13 12 11 11 10 9 9 9 9 10 9 8 7 6 7 8 9 10 9 9 9 9 7 7 6
19 18 18 18 17 16 15 13 13 13 12 11 11 11 10 9 7 6 5 8 9 9 9 10 11 11 11 11 11 8 8 8
21 20 19 18 17 14 12 11 11 11 10 10 10 11 10 9 8 7 7 8 8 8 9 10 11 11 11 12 11 9 9 7
23 21 19 18 15 13 11 9 7 8 9 11 12 11 10 10 8 7 6 6 8 9 9 11 9 10 11 11 11 11 7 6
27 24 21 19 14 10 8 7 8 9 10 11 9 7 6 6 6 5 5 5 8 9 10 10 8 9 10 10 8 7 8 6
25 24 21 11 6 10 8 9 8 8 8 8 8 7 6 6 4 3 3 4 7 9 10 9 7 5 8 2 4 7 6 7
23 20 12 10 11 10 10 9 8 9 8 8 7 6 5 4 4 3 1 3 5 5 5 8 9 8 4 2 1 3 4 4
18 10 9 10 10 10 9 8 7 6 6 4 2 3 4 3 4 3 1 1 2 1 1 2 4 6 6 7 5 5 3 6
Wind_Direction
40 22 6 18 207 128 139 138 136 104 98 100 96 106 113 132 138 129 138 142 140 119 114 109 260 306 184 276 323 259 188 130
59 44 31 62 73 113 128 119 123 122 122 123 122 129 147 150 150 164 130 143 151 136 156 170 194 139 47 303 241 245 217 119
74 66 73 74 88 97 112 124 129 131 136 136 132 136 145 138 160 142 103 150 176 166 169 164 173 129 164 251 267 253 264 168
98 90 90 95 100 113 123 122 128 134 136 127 120 132 139 155 165 127 150 178 163 113 102 99 54 155 148 204 262 259 257 242
112 111 104 99 100 115 127 133 139 150 169 156 167 174 168 153 161 159 163 160 161 148 154 197 215 193 179 196 215 232 232 254
119 117 117 119 133 140 146 148 156 167 173 164 174 167 171 160 172 156 172 177 187 195 203 199 197 198 173 228 214 238 247 249
122 127 126 124 130 135 140 150 158 167 170 184 169 170 152 158 163 176 183 183 187 192 192 195 179 153 210 213 223 246 255 264
145 142 132 132 137 142 149 158 159 159 158 164 168 163 174 166 169 193 174 181 185 178 192 188 181 183 188 202 205 233 243 258
151 142 144 143 147 156 161 159 153 163 169 177 179 180 185 200 198 179 204 200 180 148 201 196 188 188 202 205 225 233 256 253
161 156 154 152 155 157 164 166 162 169 181 194 194 194 209 204 185 197 203 199 182 189 200 199 197 200 202 208 239 233 225 242
170 171 169 166 162 161 168 181 185 180 194 205 206 205 206 206 204 208 206 211 206 199 210 218 220 216 212 215 226 222 233 232
182 185 183 180 178 173 184 190 201 210 204 215 210 215 203 206 213 214 215 217 221 227 225 228 232 231 223 223 232 236 224 240
192 196 191 191 191 191 192 204 214 222 219 215 214 209 207 207 218 216 206 213 215 229 227 233 239 233 236 232 228 223 230 230
200 199 197 199 200 204 209 211 226 232 223 219 214 213 205 199 194 203 210 231 233 233 243 240 239 242 240 237 237 225 227 228
211 204 203 207 204 211 218 224 221 230 219 218 210 209 201 190 192 200 212 237 250 247 244 248 245 253 242 234 232 222 211 210
216 212 214 211 203 219 227 183 196 204 207 208 192 188 196 189 194 204 219 244 258 258 252 252 251 247 251 236 224 214 204 186
222 217 221 212 206 224 180 173 185 187 188 188 176 188 190 197 206 224 252 265 271 283 270 266 252 257 44 12 232 199 180 195
219 221 195 203 197 179 170 167 170 176 173 171 177 190 215 204 215 230 258 281 304 355 5 22 43 55 51 118 66 135 173 185
221 182 176 179 177 146 135 149 150 151 159 148 143 198 189 156 82 99 90 63 73 318 33 89 111 86 110 99 67 95 116 63